FENGYUN 1C DEB, 30858

Orbit data source: Space-Track

FENGYUN 1C DEB, 30858 is space debris in SSO originally from a launch on Mon, 10 May 1999 UTC launched from the Taiyaun Space Center, China (TSC). Fengyun 1C debris stems from the Chinese weather satellite Fengyun-1C, which was intentionally destroyed by a Chinese anti-satellite missile in 2007. This event dramatically increased the amount of space debris, with thousands of trackable fragments posing hazards to satellites and human spaceflight. The Fengyun 1C debris cloud has become a focal point in discussions about space sustainability and the need for international regulations to prevent the creation of new debris.

Loading next visibility...
Identifier
30858, 1999-025AWU
Orbit
SSO
Country
Flag of CNCN / PRC
Related business
Manufacturer
Unknown
Mission
Spacecraft
Bus & Motor
Unknown
Mass
Unknown
Launch date (UTC)
1999-05-10 (27 years ago)
Launch vehicle
Unknown
Launch site
Taiyaun Space Center, China (TSC)
Object type
Payload
Rocket body
Debris
Shape & HBR
Unknown shape, 0.1 m
Radar Cross Section
Small (<0.1 m²)

Expand to show TLE details & history
Last TLE update: 7 hours ago

TLE from 7 hours ago
0 FENGYUN 1C DEB
1 30858U 99025AWU 25353.95587899  .00000550  00000-0  28998-3 0  9996
2 30858  98.7982  51.5198 0030665  89.8206  87.7385 14.17791364970828
Epoch: 2025-12-19T22:56Z
TLE epoch observation values (Epoch: 2025-12-19T22:56:27.944Z)
Latitude
1.9611°
Longitude
158.91581°
Altitude
834.702 km
Speed
7.436 km/s
True Right ascension
15h 27m 17s
True Declination
1° 56' 58"
Sunlit
Object was in daylight at epoch
Visualization orbit readout
Latitude
Unknown
Longitude
Unknown
Altitude
Unknown
Speed
Unknown
Apparent Right ascension
Unknown
Apparent Declination
Unknown
Sunlit
N/A
Visualization observer readout
Local Sidereal Time
04:53:49
Azimuth
Unknown
Elevation
Unknown
Doppler factor
Unknown
Orbital elements
Apogee altitude
852.101 km
Perigee altitude
807.894 km
Semi-major axis
7,208.135 km
Eccentricity
0.00307
Inclination
98.7982°
RAAN
51.5198°
Arg. of periapsis
89.8206°
True anomaly
88.08967°
Mean anomaly
87.7385°
Eccentric anomaly
87.91408°
Mean motion
3.54657 °/min
Orbital period
101.51 mins
BSTAR
0.00028998
Loading maneuver chart data...
Computing Atmospheric mass density...

Documentation

Showing up to 5 results
|